Flag for Switzerland Weather past 2 weeks in Yverdon-les-Bains, Vaud, Switzerland

Now
51 °F

Cool.


Feels Like: 50 °F
Forecast: 44 / 63 °F
Wind: 5 mph from Northeast

Location: Payerne

Current Time: May 24, 2015 at 7:55:14 AM

Latest Report: May 24, 2015 at 7:00 AM


Visibility: N/A

Pressure: 30.03 "Hg

Humidity: 72%

Dew point: 42 °F

Location of Yverdon-les-BainsLocation

Historic Weather in Yverdon-les-Bains — Graph

°F

Yverdon-les-Bains temperature yesterday

Maximum temperature yesterday: 63 °F (at 4:00 PM)
Minimum temperature yesterday: 46 °F (at 6:00 AM)
Average temperature yesterday: 56 °F

Past Weeks' High & Low Weather Summary

 TemperatureHumidityPressure
High83 °F (May 13, 5:00 PM)97% (May 22, 6:00 AM)30.39 "Hg (May 22, 6:00 AM)
Low41 °F (May 22, 6:00 AM)23% (May 10, 7:00 PM)29.71 "Hg (May 18, 7:00 PM)
Average57 °F67%30.10 "Hg
* Reported May 9 6:00 AM — May 24 6:00 AM, Yverdon-les-Bains, Weather by CustomWeather, © 2015

Note: Actual official high and low records may vary slightly from our data, if they occured in-between our weather recording intervals... More about our weather records

Advertising

Yverdon-les-Bains weather history for previous 24 hours

 ConditionsComfort  
Time TempWeatherWind HumidityBarometerVisibility
6:00 AM
Sun, May 24
47 °FCool.1 mph87%30.04 "HgN/A
5:00 AM50 °FCool.3 mph80%30.02 "HgN/A
4:00 AM52 °FCool.2 mph72%30.03 "HgN/A
3:00 AM49 °FCool.2 mph80%30.04 "HgN/A
2:00 AM48 °FFog.2 mph80%30.06 "Hg7 mi
1:00 AM49 °FCool.2 mph78%30.06 "HgN/A
12:00 AM49 °FCool.3 mph81%30.06 "HgN/A
10:00 PM
Sat, May 23
54 °FCool.2 mph65%30.05 "HgN/A
9:00 PM56 °FCool.2 mph60%30.02 "HgN/A
8:00 PM60 °FScattered clouds.8 mph49%30.01 "Hg8 mi
7:00 PM61 °FRefreshingly cool.10 mph47%29.99 "HgN/A
6:00 PM63 °FMild.14 mph43%29.98 "HgN/A
5:00 PM62 °FMild.15 mph46%29.98 "HgN/A
4:00 PM63 °FMild.14 mph43%29.99 "HgN/A
3:00 PM62 °FRefreshingly cool.14 mph48%30.00 "HgN/A
2:00 PM63 °FPartly sunny.13 mph46%30.00 "Hg9 mi
1:00 PM61 °FRefreshingly cool.16 mph47%30.01 "HgN/A
12:40 PM62 °FRefreshingly cool.14 mph47%30.01 "HgN/A
12:00 PM61 °FRefreshingly cool.16 mph46%30.01 "HgN/A
11:00 AM59 °FPartly sunny.14 mph51%30.03 "Hg6 mi
10:00 AM58 °FRefreshingly cool.12 mph55%30.04 "HgN/A
9:00 AM53 °FCool.5 mph71%30.06 "HgN/A
8:00 AM49 °FFog.6 mph75%30.07 "Hg4 mi
7:00 AM47 °FCool.6 mph78%30.07 "HgN/A
Weather by CustomWeather, © 2015

See weather overviewHow to use our weather pages